This is the latest recevied weather packets stored in our database for station/object OE5ERN-10. If no packets are shown the sender has not sent any weather packets the latest 10 day(s).
| Time | Temp. | Humidity | Pressure | Rain* | Wind** | Luminosity | Snow |
|---|---|---|---|---|---|---|---|
| 1777304449 | 22.22° C | 23% | 1022.2 hPa | 0 mm | - | - | - |
| 1777303549 | 23.33° C | 22% | 1022.4 hPa | 0 mm | - | - | - |
| 1777302649 | 22.78° C | 22% | 1022.6 hPa | 0 mm | - | - | - |
| 1777301749 | 22.78° C | 23% | 1022.7 hPa | 0 mm | - | - | - |
| 1777300849 | 22.22° C | 22% | 1022.7 hPa | 0 mm | - | - | - |
| 1777299949 | 22.78° C | 23% | 1022.8 hPa | 0 mm | - | - | - |
| 1777299049 | 22.78° C | 23% | 1023 hPa | 0 mm | - | - | - |
| 1777298149 | 23.89° C | 23% | 1023.2 hPa | 0 mm | - | - | - |
| 1777297249 | 23.33° C | 24% | 1023.3 hPa | 0 mm | - | - | - |
| 1777296349 | 23.33° C | 25% | 1023.4 hPa | 0 mm | - | - | - |
| 1777295449 | 22.78° C | 25% | 1023.7 hPa | 0 mm | - | - | - |
| 1777294549 | 22.78° C | 25% | 1024 hPa | 0 mm | - | - | - |
| 1777293649 | 23.33° C | 25% | 1024 hPa | 0 mm | - | - | - |
| 1777292749 | 23.33° C | 25% | 1024.2 hPa | 0 mm | - | - | - |
| 1777291849 | 22.22° C | 26% | 1024.3 hPa | 0 mm | - | - | - |
| 1777290949 | 21.67° C | 26% | 1024.4 hPa | 0 mm | - | - | - |
| 1777290049 | 21.67° C | 26% | 1024.8 hPa | 0 mm | - | - | - |
| 1777289149 | 21.67° C | 27% | 1024.8 hPa | 0 mm | - | - | - |
| 1777288249 | 22.22° C | 26% | 1025 hPa | 0 mm | - | - | - |
| 1777287349 | 23.33° C | 25% | 1025.1 hPa | 0 mm | - | - | - |
| 1777286449 | 24.44° C | 23% | 1025.3 hPa | 0 mm | - | - | - |
| 1777285549 | 25° C | 23% | 1025.4 hPa | 0 mm | - | - | - |
| 1777284649 | 27.22° C | 21% | 1025.4 hPa | 0 mm | - | - | - |
| 1777283749 | 30.56° C | 19% | 1025.8 hPa | 0 mm | - | - | - |
| 1777282849 | 33.33° C | 18% | 1025.8 hPa | 0 mm | - | - | - |
* Rain latest hour (hover to see other rain measurements)
** Current wind speed in m/s (hover to see current wind gust speed)